User: anonymous   Login
Location: *
(51.5000°N, 0.1100°W)
Time: 01:02:18
(UTC+00:00)
Language:

Cosmos 839 Rocket - Orbit

View from above orbital plane
View from above orbital plane
View from above satellite
View from above satellite

Ground track
Ground track

The orbit data is extracted from the following two-line orbital elements,

1 09013U 76067B   24194.30540156 -.00000024  00000-0  10414-3 0  9993
2 09013  65.8655  32.7978 0709309 142.4163 222.8655 12.35380706165248
Epoch (UTC): 12 July 2024 07:19:46
Eccentricity: 0.0709309
inclination: 65.8655°
perigee height: 965 km
apogee height: 2087 km
right ascension of ascending node: 32.7978°
argument of perigee: 142.4163°
revolutions per day: 12.35380706
mean anomaly at epoch: 222.8655°
orbit number at epoch: 16524

The dashed part of the orbit path shows where the satellite is in the earth's shadow,  

DLR